GW1144 Weather Reports


time (UTC)temp
F
wind
direction
speed
knots
gust
knots
rain 1hr
in
rain 24hr
in
rain mn
in
humidity
%
barometer
mb
20260504081555 59 211 5.2 13.9 0.00 0.00 0.00 37 995.4
20260504044549 59 126 4.3 8.7 0.00 0.00 0.00 40 999.7
20260504043052 58 173 2.6 7.0 0.00 0.00 0.00 40 1000.1
20260504041551 58 155 2.6 7.0 0.00 0.00 0.00 40 1000.3
20260504040055 59 153 3.5 7.8 0.00 0.00 0.00 41 1000.7
20260504034606 58 205 3.5 7.8 0.00 0.00 0.00 41 1001.1
20260504033051 58 174 2.6 7.0 0.00 0.00 0.00 41 1001.5
20260504031552 58 166 1.7 5.2 0.00 0.00 0.00 41 1001.8
20260504030054 59 173 1.7 5.2 0.00 0.00 0.00 42 1002.1
20260504024548 59 167 1.7 5.2 0.00 0.00 0.00 41 1002.4
20260504023057 59 213 1.7 7.8 0.00 0.00 0.00 40 1002.7
20260504021554 59 170 1.7 3.5 0.00 0.00 0.00 40 1002.9
20260504020056 59 190 0.0 1.7 0.00 0.00 0.00 39 1002.9
20260504014603 61 209 0.9 3.5 0.00 0.00 0.00 35 1003.0
20260504013052 63 242 0.9 3.5 0.00 0.00 0.00 34 1003.2
20260504011559 64 239 1.7 9.6 0.00 0.00 0.00 32 1003.3
20260504010059 66 221 5.2 11.3 0.00 0.00 0.00 31 1003.4
20260504004551 66 347 3.5 13.0 0.00 0.00 0.00 31 1003.4
20260504003059 67 232 3.5 9.6 0.00 0.00 0.00 29 1003.5
20260504001548 67 288 3.5 9.6 0.00 0.00 0.00 28 1003.7
20260504000049 68 281 5.2 12.2 0.00 0.00 0.00 28 1003.7
20260503234551 68 284 7.0 11.3 0.00 0.00 0.00 28 1003.9
20260503233054 68 260 2.6 11.3 0.00 0.00 0.00 27 1004.1
20260503231551 68 266 7.0 15.6 0.00 0.00 0.00 25 1004.3
20260503230051 70 300 4.3 10.4 0.00 0.00 0.00 27 1004.3
20260503224554 69 264 5.2 13.0 0.00 0.00 0.00 27 1004.5
20260503223057 69 265 6.1 14.8 0.00 0.00 0.00 25 1004.5
20260503221555 70 248 7.0 14.8 0.00 0.00 0.00 26 1004.6
20260503220059 70 271 8.7 14.8 0.00 0.00 0.00 26 1005.0
20260503214551 70 241 7.0 15.6 0.00 0.00 0.00 27 1005.0
20260503213107 70 271 8.7 14.8 0.00 0.00 0.00 26 1005.2
20260503211554 70 275 5.2 10.4 0.00 0.00 0.00 26 1005.3
20260503204558 70 269 6.1 13.9 0.00 0.00 0.00 27 1005.5
20260503203104 70 240 5.2 13.0 0.00 0.00 0.00 26 1005.8
20260503201600 70 263 6.1 13.9 0.00 0.00 0.00 26 1006.0
20260503200058 69 268 6.1 15.6 0.00 0.00 0.00 26 1006.2
20260503194555 69 252 5.2 12.2 0.00 0.00 0.00 28 1006.4
20260503193107 69 272 3.5 14.8 0.00 0.00 0.00 27 1006.6
20260503191556 68 275 5.2 11.3 0.00 0.00 0.00 27 1006.6
20260503190055 67 300 3.5 15.6 0.00 0.00 0.00 29 1006.9
20260503184604 69 261 6.1 13.9 0.00 0.00 0.00 26 1007.1
20260503183059 68 30 3.5 13.0 0.00 0.00 0.00 28 1007.2
20260503181608 68 279 3.5 11.3 0.00 0.00 0.00 26 1007.5
20260503180050 67 249 8.7 18.2 0.00 0.00 0.00 28 1007.6
20260503174549 66 279 2.6 13.9 0.00 0.00 0.00 28 1007.7
20260503173059 66 302 5.2 14.8 0.00 0.00 0.00 28 1007.8
20260503171547 66 20 4.3 12.2 0.00 0.00 0.00 30 1007.9